Theta_e
316 317 316 312 309 314 307 308 304 307 310 319 321 327 329 329 332 334 338 338 339 340 343 346 350 354 352 356 362 362 361 364
316 317 317 314 316 307 309 301 300 304 308 310 319 323 326 327 330 333 338 338 338 341 342 347 350 354 349 357 359 361 361 363
316 313 312 313 312 312 311 309 302 301 303 318 321 324 325 327 332 335 336 339 338 341 345 347 351 353 352 356 357 358 359 361
311 317 319 317 313 314 306 306 310 309 307 322 325 326 327 328 332 336 339 339 340 341 344 347 351 354 354 355 354 357 359 362
309 312 316 314 315 315 314 312 308 306 309 320 325 326 330 329 330 331 335 341 342 342 344 347 350 353 352 353 354 353 357 357
306 309 313 312 314 314 313 308 308 307 309 314 322 325 328 331 332 333 337 341 344 345 346 348 350 355 358 356 357 358 357 357
312 313 313 312 312 312 311 312 309 311 311 317 324 327 330 332 333 333 335 338 340 344 348 351 351 354 356 358 362 362 363 365
309 312 312 310 312 313 313 313 313 313 313 327 330 331 331 331 332 333 335 336 339 341 345 350 352 355 356 358 360 362 361 360
306 311 310 306 310 313 314 315 314 310 320 328 327 328 330 331 331 332 334 337 340 341 342 348 354 356 356 359 362 365 365 364
306 309 301 312 319 318 315 316 317 319 325 327 329 329 329 331 331 331 334 336 339 340 342 345 348 354 358 359 362 364 363 364
304 304 308 310 315 314 314 315 325 322 326 326 328 328 327 329 331 331 333 335 337 340 341 344 345 349 356 358 361 361 362 364
308 303 301 314 317 319 317 307 326 326 326 325 327 321 323 330 330 330 332 334 334 336 340 342 344 345 347 352 358 362 364 366
307 305 308 319 319 320 305 315 328 328 327 327 325 327 328 330 329 330 331 332 333 335 336 341 343 345 346 348 351 359 362 367
309 306 303 321 319 313 323 326 325 326 326 325 326 326 327 326 327 327 328 329 330 331 333 336 341 344 345 347 352 355 359 362
313 312 321 321 321 325 325 323 323 322 323 323 323 324 325 325 326 327 328 329 330 330 331 334 337 342 343 349 351 352 353 354
312 314 315 317 319 320 321 322 323 322 321 320 319 322 323 324 325 326 327 328 329 330 330 331 337 338 343 347 350 350 350 353
313 315 316 317 318 319 320 321 321 321 321 321 321 321 322 323 324 325 326 328 329 329 330 331 336 338 337 344 346 346 347 348
309 316 316 317 320 321 319 319 320 320 321 323 323 322 323 323 325 326 326 328 328 329 330 331 332 334 341 344 345 344 344 343
315 319 319 320 320 320 319 321 322 322 322 321 322 323 324 324 326 324 327 329 331 329 331 334 336 333 337 343 341 342 343 343
Wind_Speed
7 7 9 9 11 10 13 17 8 6 22 9 17 16 10 9 10 8 6 5 9 10 13 13 14 14 10 15 14 14 16 13
17 8 11 13 12 12 5 8 13 9 8 5 6 11 10 7 9 9 8 6 8 10 9 13 13 13 13 12 14 15 14 14
8 12 15 11 14 8 14 8 10 7 2 11 6 7 7 7 7 9 8 8 8 9 11 12 12 12 15 13 14 14 14 12
13 3 7 10 14 16 9 8 5 17 8 10 9 8 7 9 6 8 7 6 4 7 10 10 11 13 5 12 12 12 13 12
15 16 16 14 15 13 17 16 11 15 2 5 13 11 9 8 6 4 3 6 6 5 7 9 12 11 11 8 11 10 11 14
15 10 9 14 17 9 13 13 12 9 11 8 3 10 11 9 7 7 5 3 6 5 6 7 9 11 13 13 9 11 11 12
18 19 17 18 16 18 20 19 16 21 16 16 8 12 11 9 5 5 5 5 5 5 6 6 8 10 12 11 11 9 9 8
18 19 18 20 20 16 19 20 20 17 21 16 10 11 12 9 5 5 6 6 5 5 5 4 6 9 10 12 13 12 12 12
15 15 15 16 17 15 14 17 18 16 7 9 8 8 9 8 6 6 6 6 7 7 5 5 5 6 9 10 11 12 12 12
13 14 15 10 8 7 11 15 15 9 10 5 6 7 8 6 7 7 7 8 6 7 7 8 8 9 8 9 10 10 12 12
12 12 13 12 7 6 10 10 14 9 8 4 4 7 7 6 6 5 7 8 7 8 6 4 3 4 7 7 9 11 12 12
11 12 10 10 8 5 4 9 10 7 5 5 6 11 9 7 6 6 7 8 9 9 8 9 7 8 6 6 8 9 11 12
11 11 11 9 4 3 8 6 6 8 5 6 6 8 3 2 3 6 7 9 10 10 9 9 8 7 7 7 9 6 10 12
11 11 14 8 6 5 6 3 6 5 6 6 5 2 2 3 4 5 7 9 9 9 10 11 10 8 8 7 8 9 8 8
9 7 5 3 5 5 7 6 2 5 8 8 9 9 9 7 8 8 8 9 10 10 11 11 10 9 9 8 8 9 10 11
12 7 4 6 6 8 8 10 10 10 12 14 15 14 14 12 11 10 10 10 10 11 13 13 11 11 10 9 8 9 11 10
10 12 14 11 5 6 12 11 11 12 14 14 15 15 15 14 14 13 12 12 12 12 12 14 13 13 13 11 9 9 10 10
8 13 11 11 11 10 15 9 13 14 13 13 15 16 17 16 15 14 14 13 13 14 14 14 16 15 13 12 11 10 9 9
9 10 13 13 13 12 13 13 10 14 16 18 17 16 18 17 17 16 16 15 14 15 15 14 14 15 14 14 13 12 11 9
Wind_Direction
168 231 252 279 243 300 293 285 240 101 304 69 11 137 107 74 66 52 126 182 208 232 193 176 188 179 188 184 179 196 201 195
190 212 235 272 325 289 307 344 318 148 234 86 115 70 68 50 46 44 99 165 192 214 197 185 184 174 161 190 188 201 210 198
246 211 249 205 232 227 278 311 308 290 124 339 60 78 71 65 36 51 61 141 195 205 188 198 199 163 201 183 196 202 201 197
280 161 282 282 287 283 269 245 291 324 99 73 104 86 79 69 48 49 48 88 150 204 186 186 197 167 156 191 204 209 199 201
247 242 13 323 269 251 275 281 256 237 33 241 161 113 76 46 28 51 2 111 137 179 194 203 176 150 180 186 194 212 201 202
290 303 213 239 278 289 269 281 286 184 214 101 248 112 102 81 34 13 42 110 90 159 184 214 206 189 178 185 206 211 209 203
287 288 297 292 284 288 284 294 292 308 292 136 109 107 89 71 58 58 28 32 23 336 159 192 212 191 204 196 193 195 203 215
279 281 279 275 272 266 268 269 273 275 281 94 112 102 98 89 61 56 48 25 28 6 349 218 219 212 205 204 195 194 200 204
282 296 281 271 259 266 269 272 281 270 70 106 105 91 87 103 81 46 40 45 26 11 7 342 292 227 221 219 212 204 209 209
272 279 269 270 36 323 297 306 302 321 100 45 73 103 92 61 63 48 29 27 30 25 8 354 335 326 208 228 218 221 216 208
269 259 267 255 62 1 345 316 13 315 96 67 155 126 107 62 58 37 18 11 12 21 4 325 335 295 314 266 229 223 223 219
258 279 285 77 61 23 347 249 48 19 32 353 315 224 80 11 18 22 16 360 2 357 349 11 0 354 321 277 248 241 231 223
249 253 261 69 2 338 256 54 36 359 11 345 342 18 87 278 348 5 353 345 346 349 348 358 1 353 329 318 297 287 239 231
231 249 258 22 277 316 48 97 5 21 23 337 320 276 245 292 309 322 326 329 337 336 337 336 340 346 340 332 329 320 317 295
317 28 141 12 355 30 331 311 267 320 312 307 299 297 300 295 291 293 292 297 308 313 313 314 328 328 322 332 321 314 296 285
302 293 356 358 317 304 291 291 299 300 308 304 295 289 287 287 283 280 284 286 283 287 293 296 301 304 304 299 309 305 294 276
282 274 281 276 298 356 320 308 300 297 293 298 296 295 298 295 294 291 288 285 282 281 279 282 288 288 289 287 286 292 293 296
289 343 328 308 303 310 290 294 293 280 289 298 303 300 297 293 291 288 283 283 283 280 275 276 281 283 282 283 280 272 276 266
279 315 310 300 300 288 274 274 308 306 298 294 290 291 290 289 288 289 286 281 276 274 270 269 270 272 276 274 273 262 258 273